Regional Weather Roundup
Issued by NWS

Home | Current Version | Previous Version | Text Only | Print | Product List | Glossary Off
Versions: 1 2 3 4 5 6 7 8 9 10 11 12 13 14 15 16 17 18 19 20 21 22 23 24 25 26 27 28 29 30 31 32 33 34 35 36 37 38 39 40 41 42 43 44 45 46 47 48 49 50

000
ASUS45 KBOU 210007
RWRCO

WEATHER ROUNDUP FOR COLORADO
NATIONAL WEATHER SERVICE DENVER/BOULDER CO
600 PM MDT SAT SEP 20 2014

NOTE: "FAIR" INDICATES FEW OR NO CLOUDS BELOW 12000 FEET WITH NO
SIGNIFICANT WEATHER AND/OR OBSTRUCTIONS TO VISIBILITY.

COZ001>005-013-030-031-210100-
...NORTHWEST COLORADO...

CITY           SKY/WX    TMP DP  RH WIND       PRES   REMARKS
CRAIG          SUNNY     81  31  16 N5        30.22F
HAYDEN         SUNNY     79  27  14 W6        30.24S
MEEKER         NOT AVBL
MOUNT WERNER   NOT AVBL
STEAMBOAT SPGS SUNNY     77  30  17 W5        30.25F
WALDEN         SUNNY     72  30  21 N16       30.36S
$$

COZ006>008-011-210100-
...WEST CENTRAL VALLEYS...

CITY           SKY/WX    TMP DP  RH WIND       PRES   REMARKS
GRAND JUNCTION SUNNY     88  39  17 NW3       30.03S
MONTROSE       PTSUNNY   77  48  35 SE10      30.16R
EAGLE          MOSUNNY   82  34  17 NW9       30.20S
RIFLE          SUNNY     85  37  18 W12       30.09F
DELTA          PTSUNNY   86  41  20 S10       30.08R
NUCLA          PTSUNNY   81  41  24 E15G21    30.17R
$$

COZ017>023-064>068-210100-
...SOUTHWEST COLORADO...

CITY           SKY/WX    TMP DP  RH WIND       PRES   REMARKS
DURANGO        MOSUNNY   81  36  19 NW9       30.16S
CORTEZ         SUNNY     86  40  19 W7        30.10F
PAGOSA SPRINGS MOSUNNY   76  33  20 SW9G16    30.28R
TELLURIDE      NOT AVBL
WOLF CREEK PAS LGT RAIN  48  34  57 NE7       30.62R
$$

COZ009-010-012-014-032>034-037-058>063-210100-
...CENTRAL COLORADO...

CITY           SKY/WX    TMP DP  RH WIND       PRES   REMARKS
ASPEN          MOSUNNY   77  35  21 NW3       30.27F
BUENA VISTA    PTSUNNY   69  35  27 SW8       30.35R
COPPER MTN     PTSUNNY   55  34  44 SE14G21   30.65S
BERTHOUD PASS  FAIR      43  41  93 MISG      30.71F THUNDER
COTTONWOOD PAS DRIZZLE   64  30  27 SW6G18    30.51R
GUNNISON       CLOUDY    72  37  28 SW14G20   30.34R
KREMMLING      SUNNY     79   7   6 NW6       30.29S
LEADVILLE      CLOUDY    59  36  42 NE9       30.49R
MONARCH PASS   PTSUNNY   54  32  43 E17       30.74S
SALIDA         CLOUDY    74  41  30 E13G20    30.38R
SUNLIGHT       SUNNY     63  32  31 CALM      30.55F
WILKERSON PASS NOT AVBL
$$

COZ069>075-210100-
...SAN LUIS VALLEY/SANGRE DE CRISTO MOUNTAINS...

CITY           SKY/WX    TMP DP  RH WIND       PRES   REMARKS
ALAMOSA        PTSUNNY   77  40  26 SE17G25   30.27R
LA VETA PASS   SUNNY     59  41  51 NE15G24   30.53R
SAGUACHE       NOT AVBL
$$

COZ035-036-038>040-210100-
...NORTHERN COLORADO FRONT RANGE...

CITY           SKY/WX    TMP DP  RH WIND       PRES   REMARKS
DENVER INTL AP MOSUNNY   77  46  33 E9        30.24S
DMNS CITY PARK   N/A     75  41  29 N5        30.24R
AURORA         PTSUNNY   73  47  38 E7        30.27R
FRONT RANGE AP NOT AVBL
ERIE MUNI ARPT MOSUNNY   78  43  29 N5        30.22S
BOULDER MUN AP MOSUNNY   77  45  31 NW3       30.23S
CENTENNIAL     PTSUNNY   75  46  35 NE7       30.26S
BROOMFIELD     MOSUNNY   77  43  29 CALM      30.26S
FORT COLLINS   SUNNY     79  48  34 S8        30.21S
LONGMONT       SUNNY     81  46  29 CALM      30.24S
$$

COZ041-046-047-076>085-087-088-210100-
...PIKES PEAK/PALMER DIVIDE AND SOUTHERN FOOTHILLS...

CITY           SKY/WX    TMP DP  RH WIND       PRES   REMARKS
COLO. SPRINGS  PTSUNNY   77  44  30 E15       30.26S
A. F. ACADEMY  PTSUNNY   73  45  35 E8        30.29R
ELLICOTT       NOT AVBL
FALCON         PTSUNNY   70  44  38 NE9       30.33S
FORT CARSON    PTSUNNY   78  46  31 E12       30.23S
LIMON          CLEAR     76  47  35 E10       30.24R
MONUMENT HILL  MOSUNNY   66  45  45 NE10      30.33S
TRINIDAD       SUNNY     81  45  28 E10       30.21R
$$

COZ042>045-048>051-090-091-210100-
...NORTHEAST COLORADO...

CITY           SKY/WX    TMP DP  RH WIND       PRES   REMARKS
GREELEY ARPT   SUNNY     79  48  34 S10       30.22R
AKRON          CLEAR     77  48  35 E8        30.20S
BURLINGTON     CLEAR     80  47  31 NE13      30.17S
WRAY           CLEAR     82  46  28 N7        30.15R
STERLING       CLEAR     82  52  34 E7        30.16R
HOLYOKE        CLEAR     81  46  30 N8        30.15S
FORT MORGAN    CLEAR     77  46  34 E10       30.21S
$$

COZ086-089-092>099-210100-
...SOUTHEAST COLORADO...

CITY           SKY/WX    TMP DP  RH WIND       PRES   REMARKS
PUEBLO         SUNNY     85  47  26 SE17      30.14R
LA JUNTA       CLEAR     85  48  27 E13       30.12S
LAMAR          CLEAR     85  53  33 NE10      30.08R
SPRINGFIELD      N/A     84  52  33 NE13      30.11R
$$



USA.gov is the U.S. government's official web portal to all federal, state and local government web resources and services.